Location: Waco, TX
(31.5480°N, 97.1670°W)
Time: 11:27:37
(UTC-05:00)

ISS - Pass Details

Date: 16 June 2018
Orbit: 402 x 406 km, 51.6° (Epoch: 22 June)

Event Time Altitude Azimuth Distance (km) Brightness Sun altitude
Rises 09:58:25 0° 184° (S) 2,308 -0.1 42.9°
Reaches altitude 10° 10:01:22 10° 155° (SSE) 1,454 -0.7 43.5°
Maximum altitude 10:02:56 13° 126° (SE) 1,293 -0.5 43.9°
Drops below altitude 10° 10:04:30 10° 97° (E) 1,459 0.0 44.2°
Sets 10:07:27 0° 68° (ENE) 2,322 0.7 44.8°
